Regional Weather Roundup
Issued by NWS

Home | Current Version | Previous Version | Graphics & Text | Print | Product List | Glossary On
Versions: 1 2 3 4 5 6 7 8 9 10 11 12 13 14 15 16 17 18 19 20 21 22 23 24 25 26 27 28 29 30 31 32 33 34 35 36 37 38 39 40 41 42 43 44 45 46 47 48 49 50
000
ASUS45 KCYS 202210
RWRWY

WYOMING REGIONAL WEATHER ROUNDUP
NATIONAL WEATHER SERVICE CHEYENNE WY
300 PM MST THU NOV 20 2014

NOTE:  "FAIR" INDICATES FEW OR NO CLOUDS BELOW 12,000 FEET
WITH NO SIGNIFICANT WEATHER AND/OR OBSTRUCTIONS TO VISIBILITY.

WYZ001-202300-
YELLOWSTONE NATIONAL PARK

CITY           SKY/WX    TMP DP  RH WIND       PRES   REMARKS
LK YELLOWSTONE   N/A     34  15  46 VRB5      30.02F WCI  30
W YELLOWSTONE  NOT AVBL

$$
WYZ002>013-054>058-071-098>099-202300-
NORTHERN WYOMING

CITY           SKY/WX    TMP DP  RH WIND       PRES   REMARKS
JACKSON        SUNNY     21  19  93 CALM      30.05F
CODY           PTSUNNY   28  21  74 N6        29.88S WCI  22
GREYBULL       MOSUNNY   22  14  71 CALM      29.93F
WORLAND        PTSUNNY   27  18  69 CALM      29.92F
SHERIDAN       PTSUNNY   43  25  49 CALM      29.85F
BUFFALO        PTSUNNY   47  22  37 S3        29.87S
GILLETTE       MOSUNNY   42  25  50 CALM      29.86F
HULETT           N/A    N/A N/A N/A MISG        N/A
NEWCASTLE      FAIR      32  23  69 CALM      29.91S

$$
WYZ014>020-022>026-101>103-202300-
CENTRAL WYOMING

CITY           SKY/WX    TMP DP  RH WIND       PRES   REMARKS
BIG PINEY      CLOUDY    39  15  37 CALM      30.03F
PINEDALE       MOCLDY    37  23  56 W13       30.03R WCI  29
DUBOIS         FAIR      37  19  48 NW9G18    29.95F WCI  31
LANDER         CLOUDY    31  20  63 SE3       29.92F
RIVERTON       CLOUDY    28  16  60 E3        29.94F
CASPER         MOSUNNY   44  21  40 SW15      29.91F
DOUGLAS        SUNNY     48  21  34 W3        29.91S

$$
WYZ021-027>030-104>119-202300-
SOUTHERN WYOMING

CITY           SKY/WX    TMP DP  RH WIND       PRES   REMARKS
EVANSTON       CLOUDY    40  16  37 SW8       30.04F WCI  34
KEMMERER       CLOUDY    37  12  35 W5        30.04F WCI  34
FORT BRIDGER   CLOUDY    42  16  33 W9        30.08S
ROCK SPRINGS   CLOUDY    39  15  37 W8        30.04R WCI  33
DIXON          CLOUDY    43  11  27 SW9       30.07S
RAWLINS        CLOUDY    41  16  36 SW9       30.00F
SARATOGA       MOCLDY    41  16  36 SW12      30.02S
LARAMIE        MOSUNNY   39  15  37 SW13      29.96S WCI  31
CHEYENNE       MOSUNNY   49   9  19 S7        29.94S
TORRINGTON     SUNNY     53  18  25 SE5       29.91R
PINE BLUFFS    FAIR      52   9  17 S7        29.94F

$$


USA.gov is the U.S. government's official web portal to all federal, state and local government web resources and services.